CW6682 Weather Reports


Display with metric or nautical units.
time (UTC)temp
F
wind
direction
speed
MPH
gust
MPH
rain 1hr
in
rain 24hr
in
rain mn
in
humidity
%
barometer
mb
20260505101509 65 150 5.0 0.0 0.00 0.00 0.00 61 1009.1
20260505100010 65 165 3.0 0.0 0.00 0.00 0.00 61 1009.1
20260505094508 65 155 5.0 0.0 0.00 0.00 0.00 61 1009.1
20260505093007 64 173 4.0 0.0 0.00 0.00 0.00 63 1009.1
20260505091507 64 151 8.0 0.0 0.00 0.00 0.00 62 1009.2
20260505090003 65 169 7.0 0.0 0.00 0.00 0.00 60 1009.5
20260505084600 66 198 10.0 0.0 0.00 0.00 0.00 57 1009.5
20260505084502 66 165 10.0 0.0 0.00 0.00 0.00 57 1009.5
20260505083057 66 142 9.0 0.0 0.00 0.00 0.00 54 1009.6
20260505081601 67 168 9.0 0.0 0.00 0.00 0.00 51 1009.6
20260505080050 68 194 10.0 0.0 0.00 0.00 0.00 44 1009.7
20260505074605 69 192 5.0 0.0 0.00 0.00 0.00 43 1009.5
20260505073051 69 181 6.0 0.0 0.00 0.00 0.00 43 1009.6
20260505071541 69 186 6.0 0.0 0.00 0.00 0.00 41 1009.6
20260505070040 69 177 9.0 0.0 0.00 0.00 0.00 39 1009.6
20260505064538 70 175 9.0 0.0 0.00 0.00 0.00 35 1009.2
20260505063040 70 184 8.0 0.0 0.00 0.00 0.00 33 1009.0
20260505061536 71 160 8.0 0.0 0.00 0.00 0.00 30 1008.9
20260505060031 71 169 7.0 0.0 0.00 0.00 0.00 29 1008.8
20260505054530 72 183 6.0 0.0 0.00 0.00 0.00 30 1009.3
20260505053026 72 175 2.0 0.0 0.00 0.00 0.00 29 1009.4
20260505051529 72 180 5.0 0.0 0.00 0.00 0.00 30 1009.5
20260505041523 72 338 0.0 0.0 0.00 0.00 0.00 43 1009.1
20260505040023 73 338 0.0 0.0 0.00 0.00 0.00 42 1008.8
20260505034522 73 339 0.0 0.0 0.00 0.00 0.00 42 1008.7
20260505033033 73 339 0.0 0.0 0.00 0.00 0.00 41 1008.1
20260505031521 73 339 0.0 0.0 0.00 0.00 0.00 40 1008.1
20260505030021 73 339 1.0 0.0 0.00 0.00 0.00 39 1008.3
20260505024546 74 341 1.0 0.0 0.00 0.00 0.00 38 1008.0
20260505023020 74 342 1.0 0.0 0.00 0.00 0.00 38 1008.0
20260505021536 74 13 2.0 0.0 0.00 0.00 0.00 38 1008.0
20260505020019 75 15 1.0 0.0 0.00 0.00 0.00 38 1007.8
20260505014523 75 5 0.0 0.0 0.00 0.00 0.00 37 1007.7
20260505013017 75 315 0.0 0.0 0.00 0.00 0.00 37 1007.8
20260505011518 75 315 1.0 0.0 0.00 0.00 0.00 37 1007.8
20260505010016 75 309 0.0 0.0 0.00 0.00 0.00 37 1007.8
20260505004524 75 308 0.0 0.0 0.00 0.00 0.00 37 1007.8
20260505003014 75 279 1.0 0.0 0.00 0.00 0.00 37 1008.0
20260505001514 75 283 0.0 0.0 0.00 0.00 0.00 37 1008.2
20260505000014 75 297 0.0 0.0 0.00 0.00 0.00 37 1008.3
20260504234517 75 297 2.0 0.0 0.00 0.00 0.00 39 1008.1
20260504233013 74 304 2.0 0.0 0.00 0.00 0.00 39 1008.2
20260504231513 74 300 3.0 0.0 0.00 0.00 0.00 38 1008.2
20260504230013 74 299 1.0 0.0 0.00 0.00 0.00 38 1008.3
20260504224512 74 299 4.0 0.0 0.00 0.00 0.00 38 1008.7
20260504223012 74 319 8.0 0.0 0.00 0.00 0.00 38 1008.7
20260504221511 74 292 6.0 0.0 0.00 0.00 0.00 39 1008.7
20260504220013 74 281 5.0 0.0 0.00 0.00 0.00 39 1008.8
20260504214510 74 284 3.0 0.0 0.00 0.00 0.00 39 1009.3
20260504213009 74 279 6.0 0.0 0.00 0.00 0.00 39 1009.7
20260504211510 74 298 8.0 0.0 0.00 0.00 0.00 40 1009.3
20260504210009 75 326 7.0 0.0 0.00 0.00 0.00 39 1009.4
20260504204515 75 278 6.0 0.0 0.00 0.00 0.00 37 1009.2
20260504203008 75 278 5.0 0.0 0.00 0.00 0.00 39 1009.3
20260504201506 74 280 3.0 0.0 0.00 0.00 0.00 40 1009.4
20260504200006 74 282 2.0 0.0 0.00 0.00 0.00 40 1009.3
20260504194507 73 280 3.0 0.0 0.00 0.00 0.00 41 1009.8
20260504193005 74 281 6.0 0.0 0.00 0.00 0.00 41 1009.8
20260504191507 73 299 6.0 0.0 0.00 0.00 0.00 43 1009.4
20260504190006 72 311 5.0 0.0 0.00 0.00 0.00 44 1009.3
20260504184503 72 316 8.0 0.0 0.00 0.00 0.00 45 1009.8
20260504183003 72 294 9.0 0.0 0.00 0.00 0.00 45 1010.3
20260504181611 72 313 8.0 0.0 0.00 0.00 0.00 46 1009.9
20260504180100 73 267 0.0 0.0 0.00 0.00 0.00 44 1009.2
20260504174559 74 267 6.0 0.0 0.00 0.00 0.00 41 1009.3
20260504173100 74 207 7.0 0.0 0.00 0.00 0.00 32 1009.7
20260504171559 74 193 9.0 0.0 0.00 0.00 0.00 32 1009.7